7 * 24
多渠道服务支持
STARLINK-32960 是 SpaceX Starlink 卫星互联网项目中的一颗低轨卫星,属于 Starlink 群体部署的众多卫星之一。该卫星由 SpaceX 制造并发射,旨在为全球用户提供高速、低延迟的宽带互联网服务。它运行在约 550 公里的近地轨道上,采用先进的通信技术,支持全球范围内的网络连接,尤其在偏远地区具有重要意义。STARLINK-32960 的部署有助于增强 Starlink 网络的覆盖与稳定性,推动全球互联网普及。
美国
(US)
| 数据来源 | 国际轨道数据 |
| 星历时间: | 2025-11-07T01:16:41+0800 1天前 查看轨道信息 |
| 半长轴: | 6861.075km |
| 偏心率: | 0.0001326 |
| 轨道倾角: | 43.002° |
| 近地点辐角 | 288.237° |
| 升交点赤经 | 59.951° |
| 平近点角 | 71.833° |
| 近地点: | 482.03km |
| 远地点: | 483.85km |
| 周期: | 94.264分钟 |
| 每日圈数: | 15.276174 |